This is the latest recevied weather packets stored in our database for station/object M0HPP-13. If no packets are shown the sender has not sent any weather packets the latest 10 day(s).
| Time | Temp. | Humidity | Pressure | Rain* | Wind** | Luminosity | Snow |
|---|---|---|---|---|---|---|---|
| 1787908086 | 14.44° C | 99% | 1004.3 hPa | 0 mm | - | 70 W/m² | - |
| 1787907486 | 14.44° C | 99% | 1004.3 hPa | 0 mm | - | 84 W/m² | - |
| 1787906886 | 14.44° C | 99% | 1004.4 hPa | 0 mm | - | 99 W/m² | - |
| 1787906286 | 14.44° C | 99% | 1004.5 hPa | 0 mm | - | 92 W/m² | - |
| 1787905686 | 14.44° C | 99% | 1004.5 hPa | 0 mm | - | 65 W/m² | - |
| 1787905086 | 14.44° C | 99% | 1004.7 hPa | 0 mm | - | 36 W/m² | - |
| 1787904486 | 14.44° C | 99% | 1004.8 hPa | 0 mm | - | 35 W/m² | - |
| 1787903886 | 13.89° C | 99% | 1004.9 hPa | 0 mm | - | 31 W/m² | - |
| 1787903286 | 13.89° C | 99% | 1005 hPa | 0 mm | - | 22 W/m² | - |
| 1787902686 | 13.89° C | 99% | 1004.9 hPa | 0.25 mm | - | 16 W/m² | - |
| 1787902086 | 13.89° C | 99% | 1004.9 hPa | 0.51 mm | - | 16 W/m² | - |
| 1787901486 | 13.89° C | 99% | 1005 hPa | 0.76 mm | - | 18 W/m² | - |
| 1787900886 | 13.89° C | 99% | 1005.2 hPa | 1.27 mm | - | 19 W/m² | - |
| 1787900286 | 13.89° C | 99% | 1005.2 hPa | 1.27 mm | - | 16 W/m² | - |
| 1787899686 | 13.89° C | 99% | 1005.3 hPa | 1.27 mm | - | 14 W/m² | - |
| 1787899086 | 13.89° C | 99% | 1005.5 hPa | 1.02 mm | - | 9 W/m² | - |
| 1787898486 | 13.89° C | 99% | 1005.6 hPa | 0.76 mm | - | 7 W/m² | - |
| 1787897886 | 13.89° C | 99% | 1005.5 hPa | 0.25 mm | - | 6 W/m² | - |
| 1787897286 | 13.89° C | 99% | 1005.6 hPa | 0.25 mm | - | 4 W/m² | - |
| 1787896686 | 13.89° C | 99% | 1005.8 hPa | 0 mm | - | 2 W/m² | - |
| 1787896086 | 13.89° C | 99% | 1005.8 hPa | 0 mm | - | 2 W/m² | - |
| 1787895486 | 13.89° C | 99% | 1006 hPa | 0 mm | - | 1 W/m² | - |
| 1787894889 | 13.89° C | 99% | 1006.1 hPa | 0.25 mm | - | 1 W/m² | - |
| 1787894286 | 13.89° C | 99% | 1006.2 hPa | 1.52 mm | - | 0 W/m² | - |
| 1787893686 | 13.89° C | 99% | 1006.4 hPa | 1.52 mm | - | 0 W/m² | - |
* Rain latest hour (hover to see other rain measurements)
** Current wind speed in m/s (hover to see current wind gust speed)